{"data":{"norad_id":58869,"intl_designator":"2024-019S","name":"STARLINK-31203","alt_names":[],"object_type":"PAYLOAD","status":"ACTIVE","operator":null,"country":"US","launch_date":"2024-01-29","launch_site_code":"AFETR","launch_vehicle":null,"mission":null,"orbit_class":"UNKNOWN","rcs_meters":null,"size_class":null,"mass_kg":null,"dimensions":null,"purposes":["comms"],"wikipedia_slug":null,"has_3d_model":false,"image_url":null,"decayed_at":null,"tle_current":{"epoch":"2026-05-25T02:57:47.770848Z","epoch_age_seconds":64441,"freshness":"FRESH","line1":"1 58869U 24019S   26145.12346957  .00000266  00000+0  19200-4 0  9996","line2":"2 58869  43.0020 173.6393 0000881 286.6858  73.3897 15.27574149130814","mean_motion":15.27574149,"eccentricity":8.81e-5,"inclination_deg":43.002,"raan_deg":173.6393,"arg_perigee_deg":286.6858,"mean_anomaly_deg":73.3897,"bstar":1.92e-5,"rev_number":13081,"period_min":94.267109779428,"perigee_km":482.46214405588,"apogee_km":483.67108813304,"semimajor_km":6861.2036160945,"source":"CELESTRAK","updated_at":"2026-05-25T13:38:18.778075Z"}}}